• In Uzbekistan
  • List of Countries
  • For 7 days
  • Water Temperature
  • Satellite Maps
  • Weather Map
  • Weather Widgets
  • user-avatar
    Login

    Hourly Weather Swansea

    Today, 17 January, Thursday

    Time Temperature Precipitation Wind Pressure Humidity
    00:00 +2°C° 0 mm 7 mps 751 mmHg 89%
    01:00 +2°C° 0 mm 6 mps 752 mmHg 88%
    02:00 +2°C° 0 mm 6 mps 752 mmHg 88%
    03:00 +2°C° 0 mm 6 mps 753 mmHg 88%
    04:00 +2°C° 0 mm 7 mps 754 mmHg 86%
    05:00 +2°C° 0 mm 7 mps 755 mmHg 84%
    06:00 +1°C° 0 mm 8 mps 756 mmHg 83%
    07:00 0°C° 0 mm 7 mps 757 mmHg 80%
    08:00 -1°C° 0 mm 6 mps 758 mmHg 78%
    09:00 -1°C° 0 mm 6 mps 759 mmHg 75%
    10:00 +1°C° 0 mm 6 mps 759 mmHg 70%
    11:00 +2°C° 0 mm 6 mps 760 mmHg 65%
    12:00 +3°C° 0 mm 6 mps 761 mmHg 60%
    13:00 +3°C° 0 mm 5 mps 761 mmHg 61%
    14:00 +3°C° 0 mm 5 mps 761 mmHg 62%
    15:00 +4°C° 0 mm 4 mps 762 mmHg 63%
    16:00 +3°C° 0 mm 3 mps 762 mmHg 65%
    17:00 +3°C° 0 mm 2 mps 762 mmHg 66%
    18:00 +3°C° 0 mm 1 mps 762 mmHg 68%
    19:00 +3°C° 0 mm 1 mps 762 mmHg 67%
    20:00 +3°C° 0 mm 1 mps 762 mmHg 67%
    21:00 +3°C° 0 mm 1 mps 763 mmHg 66%
    22:00 +2°C° 0 mm 2 mps 763 mmHg 66%
    23:00 +3°C° 0 mm 2 mps 763 mmHg 66%

    Tomorrow, 18 January, Friday

    Time Temperature Precipitation Wind Pressure Humidity
    00:00 +2°C° 0 mm 3 mps 762 mmHg 66%
    01:00 +1°C° 0 mm 4 mps 762 mmHg 67%
    02:00 +1°C° 0 mm 5 mps 762 mmHg 69%
    03:00 +1°C° 0 mm 5 mps 761 mmHg 70%
    04:00 +1°C° 0 mm 6 mps 760 mmHg 70%
    05:00 +2°C° 0 mm 6 mps 760 mmHg 70%
    06:00 +2°C° 0 mm 7 mps 759 mmHg 70%
    07:00 +2°C° 0.1 mm 7 mps 759 mmHg 72%
    08:00 +2°C° 0.1 mm 7 mps 758 mmHg 73%
    09:00 +2°C° 0.1 mm 8 mps 758 mmHg 75%
    10:00 +2°C° 0.8 mm 8 mps 757 mmHg 78%
    11:00 +2°C° 0.8 mm 9 mps 757 mmHg 81%
    12:00 +2°C° 0.8 mm 9 mps 757 mmHg 84%
    13:00 +2°C° 0.4 mm 9 mps 756 mmHg 86%
    14:00 +2°C° 0.4 mm 10 mps 755 mmHg 87%
    15:00 +2°C° 0.4 mm 10 mps 755 mmHg 88%
    16:00 +3°C° 0.2 mm 9 mps 755 mmHg 89%
    17:00 +3°C° 0.2 mm 9 mps 755 mmHg 90%
    18:00 +4°C° 0.2 mm 8 mps 755 mmHg 91%
    19:00 +4°C° 0.3 mm 7 mps 754 mmHg 92%
    20:00 +5°C° 0.3 mm 6 mps 754 mmHg 92%
    21:00 +6°C° 0.3 mm 5 mps 754 mmHg 92%
    22:00 +6°C° 0.6 mm 4 mps 754 mmHg 91%
    23:00 +5°C° 0.6 mm 4 mps 753 mmHg 90%

    Day after tomorrow, 19 January, Saturday

    Time Temperature Precipitation Wind Pressure Humidity
    00:00 +5°C° 0.6 mm 4 mps 753 mmHg 90%
    01:00 +5°C° 0.4 mm 3 mps 753 mmHg 90%
    02:00 +5°C° 0.4 mm 3 mps 753 mmHg 89%
    03:00 +5°C° 0.4 mm 3 mps 752 mmHg 89%
    04:00 +5°C° 0.2 mm 3 mps 752 mmHg 89%
    05:00 +6°C° 0.2 mm 2 mps 752 mmHg 89%
    06:00 +5°C° 0.2 mm 2 mps 752 mmHg 90%
    07:00 +5°C° 0 mm 2 mps 752 mmHg 89%
    08:00 +6°C° 0 mm 1 mps 752 mmHg 89%
    09:00 +6°C° 0 mm 1 mps 752 mmHg 89%
    10:00 +6°C° 0 mm 2 mps 752 mmHg 86%
    11:00 +8°C° 0 mm 2 mps 753 mmHg 84%
    12:00 +9°C° 0 mm 3 mps 753 mmHg 81%
    13:00 +9°C° 0 mm 3 mps 753 mmHg 83%
    14:00 +9°C° 0 mm 2 mps 753 mmHg 85%
    15:00 +9°C° 0 mm 2 mps 753 mmHg 86%
    16:00 +8°C° 0 mm 2 mps 753 mmHg 89%
    17:00 +7°C° 0 mm 2 mps 753 mmHg 91%
    18:00 +6°C° 0 mm 2 mps 754 mmHg 93%
    19:00 +5°C° 0 mm 3 mps 754 mmHg 94%
    20:00 +5°C° 0 mm 3 mps 754 mmHg 94%
    21:00 +5°C° 0 mm 3 mps 755 mmHg 95%
    22:00 +5°C° 0 mm 3 mps 755 mmHg 95%
    23:00 +5°C° 0 mm 3 mps 756 mmHg 95%

    20 January, Sunday

    Time Temperature Precipitation Wind Pressure Humidity
    00:00 +5°C° 0 mm 4 mps 756 mmHg 95%
    01:00 +5°C° 0.1 mm 4 mps 756 mmHg 95%
    02:00 +6°C° 0.1 mm 5 mps 757 mmHg 95%
    03:00 +6°C° 0.1 mm 5 mps 757 mmHg 95%
    04:00 +5°C° 0.2 mm 7 mps 758 mmHg 92%
    05:00 +5°C° 0.2 mm 8 mps 758 mmHg 89%
    06:00 +3°C° 0.2 mm 9 mps 759 mmHg 86%
    07:00 +3°C° 0 mm 9 mps 760 mmHg 85%
    08:00 +3°C° 0 mm 9 mps 761 mmHg 85%
    09:00 +2°C° 0 mm 9 mps 762 mmHg 85%
    10:00 +3°C° 0 mm 9 mps 762 mmHg 82%
    11:00 +3°C° 0 mm 9 mps 763 mmHg 79%
    12:00 +5°C° 0 mm 10 mps 764 mmHg 76%
    13:00 +3°C° 0 mm 9 mps 764 mmHg 74%
    14:00 +3°C° 0 mm 9 mps 765 mmHg 71%
    15:00 +3°C° 0 mm 9 mps 765 mmHg 69%
    16:00 +2°C° 0 mm 8 mps 766 mmHg 71%
    17:00 +3°C° 0 mm 7 mps 766 mmHg 74%
    18:00 +2°C° 0 mm 7 mps 767 mmHg 76%
    19:00 +2°C° 0 mm 6 mps 768 mmHg 78%
    20:00 +1°C° 0 mm 6 mps 768 mmHg 79%
    21:00 +1°C° 0 mm 5 mps 769 mmHg 81%
    22:00 +1°C° 0 mm 5 mps 769 mmHg 82%
    23:00 0°C° 0 mm 4 mps 769 mmHg 82%

    21 January, Monday

    Time Temperature Precipitation Wind Pressure Humidity
    00:00 0°C° 0 mm 4 mps 769 mmHg 83%
    01:00 0°C° 0 mm 4 mps 769 mmHg 84%
    02:00 +1°C° 0 mm 3 mps 769 mmHg 84%
    03:00 +1°C° 0 mm 3 mps 769 mmHg 85%
    04:00 +2°C° 0 mm 2 mps 768 mmHg 85%
    05:00 +2°C° 0 mm 2 mps 768 mmHg 86%
    06:00 +1°C° 0 mm 2 mps 768 mmHg 86%
    07:00 +2°C° 0 mm 2 mps 768 mmHg 85%
    08:00 +3°C° 0 mm 1 mps 767 mmHg 84%
    09:00 +3°C° 0 mm 1 mps 767 mmHg 83%
    10:00 +3°C° 0 mm 3 mps 766 mmHg 78%
    11:00 +3°C° 0 mm 5 mps 765 mmHg 73%
    12:00 +4°C° 0 mm 6 mps 764 mmHg 68%
    13:00 +4°C° 0.2 mm 7 mps 762 mmHg 71%
    14:00 +4°C° 0.2 mm 7 mps 761 mmHg 75%
    15:00 +4°C° 0.2 mm 8 mps 759 mmHg 78%
    16:00 +3°C° 1 mm 9 mps 757 mmHg 81%
    17:00 +3°C° 1 mm 10 mps 755 mmHg 85%
    18:00 +3°C° 1 mm 11 mps 753 mmHg 88%
    19:00 +3°C° 1.8 mm 10 mps 752 mmHg 86%
    20:00 +2°C° 1.8 mm 9 mps 751 mmHg 83%
    21:00 +2°C° 1.8 mm 9 mps 751 mmHg 81%
    22:00 +1°C° 0 mm 8 mps 750 mmHg 81%
    23:00 +2°C° 0 mm 7 mps 750 mmHg 82%

    22 January, Tuesday

    Time Temperature Precipitation Wind Pressure Humidity
    00:00 +1°C° 0 mm 6 mps 750 mmHg 83%
    01:00 +1°C° 0 mm 6 mps 750 mmHg 84%
    02:00 +1°C° 0 mm 6 mps 750 mmHg 85%
    03:00 -1°C° 0 mm 6 mps 750 mmHg 86%
    04:00 -1°C° 0 mm 7 mps 750 mmHg 86%
    05:00 0°C° 0 mm 7 mps 750 mmHg 85%
    06:00 0°C° 0 mm 8 mps 750 mmHg 84%
    07:00 0°C° 0 mm 8 mps 750 mmHg 83%
    08:00 0°C° 0 mm 8 mps 750 mmHg 83%
    09:00 0°C° 0 mm 8 mps 751 mmHg 82%
    10:00 +1°C° 0 mm 8 mps 751 mmHg 79%
    11:00 +2°C° 0 mm 8 mps 751 mmHg 76%
    12:00 +2°C° 0 mm 8 mps 751 mmHg 73%
    13:00 +2°C° 0 mm 8 mps 750 mmHg 74%
    14:00 +2°C° 0 mm 8 mps 750 mmHg 74%
    15:00 +3°C° 0 mm 7 mps 750 mmHg 74%
    16:00 +2°C° 0 mm 7 mps 750 mmHg 77%
    17:00 +1°C° 0 mm 6 mps 750 mmHg 80%
    18:00 +1°C° 0 mm 6 mps 751 mmHg 82%
    19:00 0°C° 0 mm 5 mps 751 mmHg 82%
    20:00 0°C° 0 mm 5 mps 751 mmHg 82%
    21:00 0°C° 0 mm 5 mps 751 mmHg 81%
    22:00 0°C° 0 mm 5 mps 751 mmHg 81%
    23:00 -1°C° 0 mm 4 mps 751 mmHg 82%
    Show more